Pedro Gomes

Scout - Grêmio
14 Okt 2027
Donnerstag
Verarbeitung

Persönlichkeit

Anpassungsfähigkeit (1) Ehrgeiz (9) Kontroverse (5) Loyalität (9) Druck (1) Professionalität (1) Fairness (12) Temperament (1)

Profil

Trainerstil Demokratisch
Lizenz Nationale A
Entschlossenheit 15
Menschenführung 13
Motivation 13
Disziplin 10
Arbeitszufriedenheit
100%
Ermüdung
0%
Rolle Scout
Gehalt 116.2K p/W
Vertrag 14.03.2029

Leistung

Verhalten Gut
Trainingseffektivität
49%
Spielerentwicklung
45%
Verletzungsprävention
60%
Taktische Umsetzung
35%

Letzte Ereignisse

Nahm an einer Scouting-Besprechung teil 7T her
Nahm an einer Scouting-Besprechung teil 14T her
Nahm an einer Scouting-Besprechung teil 21T her
Nahm an einer Scouting-Besprechung teil 28T her
Nahm an einer Scouting-Besprechung teil 35T her
Nahm an einer Scouting-Besprechung teil 42T her
Nahm an einer Scouting-Besprechung teil 49T her
Nahm an einer Scouting-Besprechung teil 56T her

Aktuell beobachtet

95
Spieler Verein Status Fähigkeit Vertrauen Beobachtet Zuletzt beobachtet Letzte Stimme
Gonçalo Oliveira Benfica Aktiv 117 / 136 40% 1 20.07.2027 -
Leandro Martins Benfica Aktiv 83 / 87 40% 1 20.07.2027 -
Dango Ouattara Brentford Aktiv 158 / 163 40% 1 30.05.2027 -
Hector Ramirez Newcastle United Aktiv 162 / 143 40% 2 29.05.2027 -
Matt O'Riley Brighton Aktiv 141 / 141 40% 2 29.05.2027 -
Guille Rosas Gijón Aktiv 155 / 135 40% 2 29.05.2027 -
Borja Sainz Fiorentina Aktiv 136 / 150 40% 3 28.05.2027 -
Mats Wieffer Brighton Aktiv 149 / 135 40% 2 27.05.2027 -
Jacob Ramsey Newcastle United Aktiv 147 / 156 40% 3 25.05.2027 -
Francisco Conceição Juventus Aktiv 170 / 173 40% 3 25.05.2027 -
Jan Paul van Hecke Tottenham Aktiv 174 / 171 40% 1 24.05.2027 -
Curtis Jones Inter Aktiv 142 / 171 40% 1 24.05.2027 -
Jack McGlynn Stoke City Aktiv 129 / 144 40% 2 23.05.2027 -
Florentino Luís Ipswich Town Aktiv 157 / 129 40% 2 23.05.2027 -
Jack Rudoni Coventry City Aktiv 128 / 135 40% 2 23.05.2027 -
Boubacar Kamara Aston Villa Aktiv 165 / 148 40% 1 23.05.2027 -
Kiernan Dewsbury-Hall Everton Aktiv 158 / 165 40% 1 21.05.2027 -
Giacomo Raspadori Atalanta Aktiv 143 / 158 40% 3 20.05.2027 -
Callum Hudson-Odoi Nottingham Forest Aktiv 162 / 153 40% 2 20.05.2027 -
Ethan Galbraith Swansea City Aktiv 148 / 146 40% 1 19.05.2027 -
Jake O'Brien Everton Aktiv 163 / 132 40% 1 19.05.2027 -
Othmane Maamma Watford Aktiv 135 / 125 40% 1 18.05.2027 -
Alexis Saelemaekers AC Milan Aktiv 150 / 142 40% 1 17.05.2027 -
Morgan Whittaker Middlesbrough Aktiv 134 / 144 40% 4 14.05.2027 -
Nicolas Jackson Aston Villa Aktiv 140 / 145 40% 3 14.05.2027 -
Georginio Rutter Brighton Aktiv 155 / 148 40% 1 14.05.2027 -
Welington Southampton Aktiv 138 / 135 40% 3 12.05.2027 -
Yehor Yarmoliuk Brentford Aktiv 142 / 146 40% 1 11.05.2027 -
Carlos Vicente Birmingham Aktiv 149 / 137 40% 2 10.05.2027 -
Scott Twine Bristol City Aktiv 127 / 132 40% 2 07.05.2027 -
Adam Wharton Crystal Palace Aktiv 145 / 143 40% 1 01.05.2027 -
Xavi Simons Tottenham Aktiv 166 / 168 40% 1 30.04.2027 -
Derensili Sanches Fernandes Huddersfield Town Aktiv 116 / 140 40% 2 29.04.2027 -
Carlos Alcaraz Everton Aktiv 138 / 159 40% 1 28.04.2027 -
Mario Dorgeles Braga Aktiv 136 / 130 40% 3 25.04.2027 -
Tom Fellows Southampton Aktiv 122 / 138 40% 4 25.04.2027 -
Rodrigo Zalazar Sporting CP Aktiv 154 / 163 40% 1 24.04.2027 -
William Gomes Porto Aktiv 160 / 157 40% 2 22.04.2027 -
Bright Arrey-Mbi Braga Aktiv 144 / 134 40% 2 21.04.2027 -
Nico González Newcastle United Aktiv 161 / 159 40% 2 21.04.2027 -
Amadou Onana Aston Villa Aktiv 168 / 143 40% 1 18.04.2027 -
Fredrik Aursnes Benfica Aktiv 154 / 138 40% 1 17.04.2027 -
Léo Scienza Southampton Aktiv 138 / 132 40% 1 17.04.2027 -
Finn Azaz Southampton Aktiv 129 / 123 40% 4 15.04.2027 -
Iván Fresneda Sporting CP Aktiv 143 / 137 40% 5 13.04.2027 -
Bosun Lawal Stoke City Aktiv 125 / 121 40% 1 13.04.2027 -
Lewis Ferguson Bologna Aktiv 152 / 129 40% 1 12.04.2027 -
Pau Víctor AVS Aktiv 136 / 134 40% 4 11.04.2027 -
Milan van Ewijk Mansfield Town Aktiv 144 / 123 40% 1 09.04.2027 -
Noah Sadiki Sunderland Aktiv 135 / 155 40% 1 09.04.2027 -
Isaiah Jones Luton Town Aktiv 113 / 137 40% 1 05.04.2027 -
Luke McNally Bristol City Aktiv 133 / 117 40% 1 04.04.2027 -
Jesús Orozco Chiquete Cruz Azul Aktiv 137 / 133 40% 3 01.04.2027 -
Soungoutou Magassa West Ham United Aktiv 143 / 134 40% 1 01.04.2027 -
Sergi Altimira Sporting CP Aktiv 146 / 136 40% 1 31.03.2027 -
Víctor Gómez Braga Aktiv 143 / 136 40% 3 29.03.2027 -
Valery Académico de Viseu Aktiv 120 / 139 40% 1 29.03.2027 -
Zeno Debast Sporting CP Aktiv 153 / 152 40% 2 28.03.2027 -
Paulo Moreira Farense Aktiv 134 / 119 40% 2 28.03.2027 -
Erick Sánchez OGC Nice Aktiv 157 / 155 40% 3 27.03.2027 -
Gabri Martínez Braga Aktiv 136 / 119 40% 2 26.03.2027 -
Imrân Louza Watford Aktiv 133 / 140 40% 1 26.03.2027 -
Jacques Ekomié Wrexham Aktiv 116 / 136 40% 1 26.03.2027 -
Ozziel Herrera Tigres Aktiv 122 / 136 40% 4 24.03.2027 -
Alberto Costa Porto Aktiv 160 / 153 40% 6 23.03.2027 -
Tyrell Malacia Monaco Aktiv 133 / 140 40% 1 21.03.2027 -
Nicolás Fernández Mercau Shakhtar Aktiv 133 / 149 40% 3 20.03.2027 -
Eduardo Quaresma Sporting CP Aktiv 142 / 147 40% 1 19.03.2027 -
Alan Varela Porto Aktiv 142 / 155 40% 3 17.03.2027 -
Félix Lemaréchal Club Brugge Aktiv 147 / 150 40% 2 17.03.2027 -
Rodrigo Pinheiro Famalicao Aktiv 113 / 126 40% 2 16.03.2027 -
Francisco Moura Lusitânia Lourosa Aktiv 130 / 154 40% 3 14.03.2027 -
Marcelo Allende Mamelodi Sundowns Aktiv 147 / 140 40% 1 12.03.2027 -
Kwadwo Baah Watford Aktiv 112 / 136 40% 1 12.03.2027 -
Naïs Djouahra Arouca Aktiv 127 / 113 40% 2 08.03.2027 -
Santi García Gil Vicente Aktiv 136 / 116 40% 2 08.03.2027 -
Max Bird Birmingham Aktiv 118 / 124 40% 1 08.03.2027 -
Gonçalo Inácio Sporting CP Aktiv 132 / 145 40% 2 03.03.2027 -
Sikou Niakaté Braga Aktiv 122 / 143 40% 1 03.03.2027 -
Gustaf Lagerbielke Braga Aktiv 138 / 124 40% 1 02.03.2027 -
Brian Rodríguez Club America Aktiv 115 / 131 40% 1 28.02.2027 -
Luís Guilherme Sporting CP Aktiv 121 / 118 40% 2 27.02.2027 -
Figueiredo Alverca Aktiv 118 / 141 40% 1 23.02.2027 -
Rafik Guitane Estoril Praia Aktiv 145 / 148 40% 1 21.02.2027 -
Ousmane Diomande Nottingham Forest Aktiv 141 / 138 40% 1 21.02.2027 -
João Simões Sporting CP Aktiv 127 / 131 40% 3 20.02.2027 -
Bamba Dieng Crvena Zvezda Aktiv 123 / 144 40% 1 18.02.2027 -
Ilay Camara Anderlecht Aktiv 140 / 145 40% 1 14.02.2027 -
Mathias De Amorim Famalicao Aktiv 130 / 129 40% 1 10.02.2027 -
Dara O'Shea Ipswich Town Aktiv 141 / 125 40% 1 07.02.2027 -
Diego Lainez Tigres Aktiv 119 / 134 40% 1 03.02.2027 -
Heorhii Sudakov Benfica Aktiv 148 / 156 40% 1 03.02.2027 -
Dinis Pinto Moreirense Aktiv 119 / 120 40% 1 30.11.2026 -
Ricardo Horta Braga Aktiv 148 / 136 40% 1 03.08.2026 -
Dodi Lukébakio Benfica Aktiv 128 / 144 40% 1 03.08.2026 -